Location: Dzierzno
(50.6159°N, 19.2852°E)
Time: 22:09:42
(UTC+00:00)

ISS - Pass Details

Date: 18 November 2025
Orbit: 416 x 421 km, 51.6° (Epoch: 05 December)

Event Time Altitude Azimuth Distance (km) Brightness Sun altitude
Rises 17:59:51 0° 270° (W) 2,367 1.3 -29.3°
Reaches altitude 10° 18:01:58 10° 272° (W) 1,501 0.0 -29.7°
Enters shadow 18:02:43 16° 274° (W) 1,196 -0.7 -29.8°
